Location: Bergnerzell
(49.1816°N, 10.2565°E)
Time: 08:37:24
(UTC+00:00)

NPP - Pass Details

Date: 23 May 2024
Orbit: 826 x 827 km, 98.7° (Epoch: 15 June)

Event Time Altitude Azimuth Distance (km) Brightness Sun altitude
Rises 00:59:08 0° 16° (NNE) 3,379 8.6 -16.5°
Reaches altitude 10° 01:01:31 10° 20° (NNE) 2,441 7.4 -16.3°
Maximum altitude 01:06:54 66° 102° (ESE) 900 3.9 -15.9°
Enters shadow 01:10:34 21° 181° (S) 1,788 4.9 -15.6°
